sat.trackr.live / text

‹ back to catalog

PUNCH-WFI 2 (SMEX 15C)

NORAD 63181 · 2025-047D

PAYLOAD ACTIVE UNKNOWN

§ Identity

Operator
Country
US
Launch date
2025-03-12
Launch site
AFWTR
Launch vehicle
Mass (kg)
RCS (m²)

External: N2YO · Heavens-Above · Gunter

§ Orbital elements

Epoch: 2026-05-25T02:15:08.659872Z

Period
97.67 min
Inclination
97.9567°
Eccentricity
0.0008006
Mean motion
14.74320563 rev/d
Perigee alt
641.7 km
Apogee alt
652.9 km
Semi-major
7,025.4 km
B*
7.0350e-5
RAAN
330.6231°
Arg perigee
254.0765°
Mean anomaly
105.9562°
Rev number
6,465

§ Raw data

PUNCH-WFI 2 (SMEX 15C)1 63181U 25047D   26145.09385023  .00000416  00000+0  70350-4 0  99942 63181  97.9567 330.6231 0008006 254.0765 105.9562 14.74320563 64659

JSON: /api/v1/satellites/63181 · /tle

For live sub-satellite position, see the globe view (requires WebGL).

§ Visibility from observer

Set your observer location to see the next 7 days of passes ≥ 10°. The values pass through the URL so the page stays shareable.

No JS? Fill the form by hand. The geolocation button needs JavaScript.